{"data":{"norad_id":66741,"intl_designator":"2025-276CD","name":"BLACK KITE-1","alt_names":[],"object_type":"PAYLOAD","status":"ACTIVE","operator":null,"country":"ROC","launch_date":"2025-11-28","launch_site_code":"AFWTR","launch_vehicle":null,"mission":null,"orbit_class":"UNKNOWN","rcs_meters":null,"size_class":null,"mass_kg":null,"dimensions":null,"purposes":[],"wikipedia_slug":null,"has_3d_model":false,"image_url":null,"decayed_at":null,"tle_current":{"epoch":"2026-09-20T22:49:47.119584Z","epoch_age_seconds":78565,"freshness":"FRESH","line1":"1 66741U 25276CD  26263.95123981  .00005081  00000+0  22658-3 0  9992","line2":"2 66741  97.4163 336.2918 0005907  30.2790 329.8786 15.21834623 42284","mean_motion":15.21834623,"eccentricity":0.0005907,"inclination_deg":97.4163,"raan_deg":336.2918,"arg_perigee_deg":30.279,"mean_anomaly_deg":329.8786,"bstar":0.00022658,"rev_number":4228,"period_min":94.622633644733,"perigee_km":496.2438264703,"apogee_km":504.37002012128,"semimajor_km":6878.4439232958,"source":"CELESTRAK","updated_at":"2026-09-21T09:00:16.175329Z"}}}